Zurück zum Katalog

ESSA 5

AktivWetterLEO
NORAD 2757·PAYLOAD·🇺🇸 United States

Gestartet Apr 20, 1967 von Vandenberg Space Force Base

Loading…

Nächste Überflüge (nächste 24 Stunden)

TLE

AktuellSource: Space-Track

Epoche: Sep 14, 2026, 12:13 UTC

1 02757U 67036A   26257.50930141 -.00000060  00000-0 -60849-4 0  9997
2 02757 101.9928  83.4490 0043050  76.8814 298.4999 12.68544088750308

Verfolge ESSA 5 in Echtzeit mit AllMySat

Download on the App Store